Flight Track Log - Related Links

Times and Time Zones

All times are in EDT time to prevent confusion due to time zone crossing. See the SKW2669 flight status page for this flight to view local times or setup timezone preferences in your user account.

Time Position Orientation Groundspeed Altitude Reporting Facility
EDT Latitude Longitude Course Direction KTS MPH feet Rate Location/Type
Wed 05:57:20 PM 40.8028 -112.0033 310° West 161 185 4,900  Level Salt Lake Center
Wed 05:58:02 PM 40.8247 -112.0383 310° West 198 228 6,200 1,889 Climbing Salt Lake Center
Wed 05:59:08 PM 40.8269 -112.1169 272° West 242 278 8,300 2,146 Climbing Salt Lake Center
Wed 06:00:05 PM 40.8092 -112.2172 257° West 259 298 10,600 1,361 Climbing Salt Lake Center
Wed 06:01:07 PM 40.7467 -112.2733 214° Southwest 275 316 11,000 683 Climbing Salt Lake Center
Wed 06:02:08 PM 40.6706 -112.2944 192° South 279 321 12,000 1,512 Climbing Salt Lake Center
Wed 06:03:10 PM 40.5947 -112.3061 187° South 275 316 14,100 1,839 Climbing Salt Lake Center
Wed 06:04:12 PM 40.5147 -112.3222 189° South 288 331 15,800 1,742 Climbing Salt Lake Center
Wed 06:05:14 PM 40.4139 -112.3436 189° South 305 351 17,700 1,742 Climbing Salt Lake Center
Wed 06:06:16 PM 40.3269 -112.3664 191° South 321 369 19,400 968 Climbing Salt Lake Center
Wed 06:07:18 PM 40.2447 -112.4253 209° Southwest 340 391 19,700 387 Climbing Salt Lake Center
Wed 06:08:20 PM 40.1539 -112.4875 208° Southwest 367 422 20,200 484 Climbing Salt Lake Center
Wed 06:09:22 PM 40.0594 -112.5561 209° Southwest 387 445 20,700 532 Climbing Salt Lake Center
Wed 06:10:24 PM 39.9603 -112.6242 208° Southwest 403 464 21,300 919 Climbing Salt Lake Center
Wed 06:11:26 PM 39.8608 -112.6931 208° Southwest 405 466 22,600 1,171 Climbing Salt Lake Center
Wed 06:12:27 PM 39.7506 -112.7697 208° Southwest 415 478 23,700 971 Climbing Salt Lake Center
Wed 06:13:42 PM 39.6214 -112.8425 203° Southwest 421 484 24,800 794 Climbing Salt Lake Center
Wed 06:14:43 PM 39.4811 -112.8833 193° South 429 494 25,500 732 Climbing Salt Lake Center
Wed 06:15:45 PM 39.3636 -112.9222 194° South 435 501 26,300 774 Climbing Salt Lake Center
Wed 06:16:47 PM 39.2453 -112.9608 194° South 439 505 27,100 774 Climbing Salt Lake Center
Wed 06:17:49 PM 39.1289 -113.0000 195° South 435 501 27,900 1,210 Climbing Salt Lake Center
Wed 06:18:51 PM 39.0122 -113.0386 194° South 434 499 29,600 1,306 Climbing Salt Lake Center
Wed 06:19:53 PM 38.9025 -113.0739 194° South 415 478 30,600 1,113 Climbing Salt Lake Center
Wed 06:20:55 PM 38.7706 -113.1142 193° South 408 470 31,900 683 Climbing Salt Lake Center
Wed 06:21:56 PM 38.6633 -113.1472 194° South 400 460 32,000 49 Climbing Salt Lake Center
Wed 06:22:58 PM 38.5519 -113.1825 194° South 408 470 32,000  Level Salt Lake Center
Wed 06:24:00 PM 38.4381 -113.2183 194° South 419 482 32,000  Level Salt Lake Center
Wed 06:25:02 PM 38.3208 -113.2556 194° South 432 497 32,000  Level Salt Lake Center
Wed 06:26:04 PM 38.2025 -113.2931 194° South 439 505 32,000  Level Salt Lake Center
Wed 06:27:06 PM 38.0581 -113.3383 194° South 446 513 32,000  Level Salt Lake Center
Wed 06:28:08 PM 37.9358 -113.3756 194° South 452 520 32,000  Level Salt Lake Center
Wed 06:29:09 PM 37.8228 -113.4481 207° Southwest 461 531 32,000  Level Salt Lake Center
Wed 06:30:11 PM 37.7139 -113.5339 212° Southwest 464 534 32,000  Level Salt Lake Center
Wed 06:31:13 PM 37.6042 -113.6203 212° Southwest 468 539 32,000  Level Salt Lake Center
Wed 06:32:15 PM 37.4728 -113.7236 212° Southwest 466 536 32,000  Level Salt Lake Center
Wed 06:33:17 PM 37.3622 -113.8083 211° Southwest 467 537 32,000  Level Salt Lake Center
Wed 06:34:19 PM 37.2544 -113.8961 213° Southwest 465 535 32,000  Level Salt Lake Center
Wed 06:35:20 PM 37.1442 -113.9817 212° Southwest 466 536 32,000  Level Salt Lake Center
Wed 06:36:22 PM 37.0336 -114.0656 211° Southwest 465 535 32,000  Level Salt Lake Center
Wed 06:36:37 PM 36.9947 -114.0967 213° Southwest 464 534 32,000  Level Los Angeles Center
Wed 06:37:39 PM 36.8856 -114.1822 212° Southwest 463 533 32,000  Level Los Angeles Center
Wed 06:38:41 PM 36.7764 -114.2667 212° Southwest 460 529 32,000  Level Los Angeles Center
Wed 06:39:43 PM 36.6683 -114.3489 211° Southwest 456 525 32,000  Level Los Angeles Center
Wed 06:40:45 PM 36.5625 -114.4308 212° Southwest 449 517 32,000  Level Los Angeles Center
Wed 06:41:47 PM 36.4575 -114.5122 212° Southwest 444 511 32,000  Level Los Angeles Center
Wed 06:42:49 PM 36.3539 -114.5908 211° Southwest 438 504 32,000  Level Los Angeles Center
Wed 06:43:52 PM 36.2294 -114.6850 211° Southwest 435 501 32,000  Level Los Angeles Center
Wed 06:45:00 PM 36.1229 -114.7566 208° Southwest  Level FlightAware Approximate
Wed 06:45:57 PM 36.0197 -114.8453 208° Southwest 439 505 32,000  Level Los Angeles Center
Wed 06:46:58 PM 35.9336 -114.9467 224° Southwest 428 493 32,000  Level Los Angeles Center
Wed 06:48:00 PM 35.8536 -115.0547 228° Southwest 427 491 32,000  Level Los Angeles Center
Wed 06:49:02 PM 35.7739 -115.1642 228° Southwest 428 493 32,000  Level Los Angeles Center
Wed 06:50:04 PM 35.6939 -115.2733 228° Southwest 427 491 32,000  Level Los Angeles Center
Wed 06:51:06 PM 35.5978 -115.4014 227° Southwest 423 487 32,000  Level Los Angeles Center
Wed 06:52:09 PM 35.5183 -115.5086 228° Southwest 423 487 32,000  Level Los Angeles Center
Wed 06:53:10 PM 35.4378 -115.6178 228° Southwest 420 483 32,000  Level Los Angeles Center
Wed 06:54:12 PM 35.3353 -115.6814 207° Southwest 420 483 32,000  Level Los Angeles Center
Wed 06:55:14 PM 35.2192 -115.7006 188° South 421 484 32,000  Level Los Angeles Center
Wed 06:56:16 PM 35.1069 -115.7178 187° South 411 473 32,000  Level Los Angeles Center
Wed 06:57:30 PM 34.9764 -115.7383 187° South 398 458 32,000  Level Los Angeles Center
Wed 06:58:32 PM 34.8700 -115.7533 187° South 387 445 32,000  Level Los Angeles Center
Wed 06:59:34 PM 34.7458 -115.7850 192° South 378 435 32,000  Level Los Angeles Center
Wed 07:00:36 PM 34.6731 -115.8683 223° Southwest 363 418 32,000 -774 Level Los Angeles Center
Wed 07:01:38 PM 34.6244 -115.9808 242° Southwest 379 436 30,400 -1,645 Descending Los Angeles Center
Wed 07:02:40 PM 34.5683 -116.1017 241° Southwest 407 468 28,600 -1,645 Descending Los Angeles Center
Wed 07:03:42 PM 34.5156 -116.2183 241° Southwest 397 457 27,000 -774 Descending Los Angeles Center
Wed 07:04:44 PM 34.4639 -116.3311 241° Southwest 384 442 27,000  Level Los Angeles Center
Wed 07:05:46 PM 34.4139 -116.4406 241° Southwest 375 432 27,000 -194 Level Los Angeles Center
Wed 07:06:48 PM 34.3508 -116.5797 241° Southwest 391 450 26,600 -629 Descending Los Angeles Center
Wed 07:07:50 PM 34.2975 -116.6972 241° Southwest 395 455 25,700 -968 Descending Los Angeles Center
Wed 07:08:52 PM 34.2442 -116.8103 240° Southwest 390 449 24,600 -1,645 Descending Los Angeles Center
Wed 07:09:54 PM 34.1958 -116.9169 241° Southwest 371 427 22,300 -2,323 Descending Los Angeles Center
Wed 07:10:56 PM 34.1489 -117.0181 241° Southwest 352 405 19,800 -2,150 Descending Los Angeles Center
Wed 07:11:54 PM 34.1000 -117.1333 243° Southwest 329 379 18,000 -1,932 Descending Southern California TRACON
Wed 07:12:54 PM 34.0500 -117.2333 239° Southwest 351 404 16,000 -2,000 Descending Southern California TRACON
Wed 07:13:54 PM 34.0333 -117.3333 259° West 335 386 14,000 -1,550 Descending Southern California TRACON
Wed 07:14:54 PM 34.0333 -117.4500 270° West 313 360 12,900 -1,000 Descending Southern California TRACON
Wed 07:15:54 PM 34.0167 -117.5500 259° West 317 365 12,000 -694 Descending Southern California TRACON
Wed 07:16:55 PM 34.0167 -117.6500 270° West 328 377 11,500 -744 Descending Southern California TRACON
Wed 07:17:55 PM 34.0000 -117.7500 259° West 286 329 10,500 -1,200 Descending Southern California TRACON
Wed 07:19:00 PM 33.9833 -117.8500 259° West 290 334 9,000 -1,200 Descending Southern California TRACON
Wed 07:19:55 PM 33.9833 -117.9500 270° West 299 344 8,100 -1,148 Descending Southern California TRACON
Wed 07:20:55 PM 33.9667 -118.0500 259° West 270 311 6,800 -1,200 Descending Southern California TRACON
Wed 07:21:55 PM 33.9667 -118.1167 270° West 231 266 5,700 -929 Descending Southern California TRACON
Wed 07:22:19 PM 33.9628 -118.1428 260° West 241 277 5,500 -977 Descending Los Angeles Center
Wed 07:23:21 PM 33.9553 -118.2031 261° West 195 224 4,300 -927 Descending Los Angeles Center
Wed 07:24:22 PM 33.9506 -118.2506 263° West 183 211 3,600 -1,210 Descending Los Angeles Center
Wed 07:25:25 PM 33.9436 -118.3231 263° West 163 188 1,800 -1,488 Descending Los Angeles Center
Wed 07:26:27 PM 33.9406 -118.3639 265° West 137 158 500 -774 Descending Los Angeles Center
Wed 07:27:29 PM 33.9369 -118.4019 263° West 133 153 200 -290 Descending Los Angeles Center
Wed 07:29:00 PM 33.9333 -118.4000 259° West  Level FlightAware Approximate

Login

Don't have an account? Register now (free) for customized features, flight alerts, and more!